Weather History for Sussex, NJ

Change the Weather History Date:

Friday, February 15, 2013

  Actual Average Record
Temperature  
Mean Temperature 38 °F -  
Max Temperature 51 °F 37 °F 70 °F (1949)
Min Temperature 26 °F 15 °F -13 °F (1963)
Degree Days  
Heating Degree Days 26    
Moisture  
Dew Point 26 °F    
Average Humidity 62    
Maximum Humidity 89    
Minimum Humidity 38    
Precipitation  
Precipitation 0.04 in - - ()
Sea Level Pressure  
Sea Level Pressure 29.95 in    
Wind  
Wind Speed 4 mph (SW)    
Max Wind Speed 10 mph    
Max Gust Speed 20 mph    
Visibility 8 miles    
Events Rain    
Averages and records for this station are not official NWS values.
T = Trace of Precipitation, MM = Missing Value Source: NWS Daily Summary

Daily Weather History Graph

Daily Weather History Graph

Search for Another Location

Airport:

Trip Planner

Search our weather history database for the weather conditions in past years. The results will help you decide how hot, cold, wet, or windy it might be!

Date:

Astronomy

Feb. 15, 2013 Rise Set
Actual Time 6:52 AM EST 5:32 PM EST
Civil Twilight 6:24 AM EST 6:01 PM EST
Nautical Twilight 5:52 AM EST 6:33 PM EST
Astronomical Twilight 5:20 AM EST 7:05 PM EST
Moon 9:23 AM EST (2/15) 11:35 PM EST (2/15)
Length of Visible Light 11h 36m
Length of Day
10h 40m
Waxing Crescent, 30% of the Moon is Illuminated
Feb 15
Waxing Crescent
Feb 17
First Quarter
Feb 25
Full
Mar 4
Last Quarter
Mar 11
New

Hourly Weather History & Observations

Time (EST) Temp. Windchill Dew Point Humidity Pressure Visibility Wind Dir Wind Speed Gust Speed Precip Events Conditions
12:53 AM 30.0 °F 26.5 °F 25.0 °F 82% 29.97 in 7.0 mi WSW 3.5 mph - N/A   Overcast
1:53 AM 30.9 °F 27.5 °F 25.0 °F 79% 29.96 in 7.0 mi SSW 3.5 mph - N/A   Overcast
2:53 AM 32.0 °F - 24.1 °F 73% 29.96 in 9.0 mi Calm Calm - N/A   Clear
3:53 AM 30.9 °F - 24.1 °F 76% 29.96 in 8.0 mi Calm Calm - N/A   Mostly Cloudy
4:53 AM 28.9 °F - 24.1 °F 82% 29.96 in 3.0 mi Calm Calm - N/A   Haze
5:53 AM 28.0 °F 24.2 °F 23.0 °F 81% 29.96 in 6.0 mi SW 3.5 mph - N/A   Haze
6:53 AM 26.1 °F - 21.9 °F 84% 29.96 in 4.0 mi Calm Calm - N/A   Clear
7:53 AM 30.0 °F - 25.0 °F 82% 29.98 in 5.0 mi Calm Calm - N/A   Haze
8:53 AM 35.1 °F 30.1 °F 27.0 °F 72% 29.99 in 6.0 mi SSW 5.8 mph - N/A   Haze
9:53 AM 39.9 °F 35.1 °F 28.9 °F 65% 29.98 in 7.0 mi SW 6.9 mph - N/A   Clear
10:53 AM 44.1 °F 39.0 °F 28.9 °F 55% 29.97 in 9.0 mi SW 9.2 mph - N/A   Clear
11:53 AM 48.0 °F - 30.0 °F 50% 29.94 in 10.0 mi SSW 10.4 mph - N/A   Clear
12:53 PM 48.9 °F - 28.9 °F 46% 29.92 in 10.0 mi South 9.2 mph 19.6 mph N/A   Clear
1:53 PM 51.1 °F - 30.0 °F 44% 29.90 in 10.0 mi SSW 8.1 mph - N/A   Clear
2:53 PM 51.1 °F - 28.0 °F 41% 29.90 in 10.0 mi SSW 9.2 mph 19.6 mph N/A   Clear
3:53 PM 50.0 °F - 28.9 °F 44% 29.91 in 10.0 mi SSW 9.2 mph - N/A   Mostly Cloudy
4:53 PM 48.9 °F - 24.1 °F 38% 29.93 in 10.0 mi Variable 4.6 mph - N/A   Overcast
5:53 PM 46.0 °F - 23.0 °F 40% 29.94 in 10.0 mi Calm Calm - N/A   Mostly Cloudy
6:53 PM 45.0 °F - 21.9 °F 40% 29.93 in 10.0 mi Calm Calm - N/A   Overcast
7:53 PM 44.1 °F 41.5 °F 21.9 °F 42% 29.93 in 10.0 mi NW 4.6 mph - N/A   Overcast
8:53 PM 44.1 °F - 21.9 °F 42% 29.94 in 10.0 mi Calm Calm - N/A   Overcast
9:53 PM 41.0 °F 36.4 °F 28.0 °F 60% 29.96 in 10.0 mi NW 6.9 mph - 0.00 in Rain Light Rain
10:12 PM 39.2 °F 34.2 °F 30.2 °F 70% 29.96 in 10.0 mi Variable 6.9 mph - 0.00 in Rain Light Rain
10:53 PM 37.0 °F - 32.0 °F 82% 29.99 in 8.0 mi Calm Calm - 0.01 in   Overcast
11:53 PM 35.1 °F - 32.0 °F 89% 29.98 in 5.0 mi Calm Calm - 0.03 in   Overcast